Regional Weather Roundup
Issued by NWS

Home | Current Version | Previous Version | Text Only | Print | Product List | Glossary On
Versions: 1 2 3 4 5 6 7 8 9 10 11 12 13 14 15 16 17 18 19 20 21 22 23 24 25 26 27 28 29 30 31 32 33 34 35 36 37 38 39 40 41 42 43 44 45 46 47 48 49 50
000
ASUS43 KDTX 301110
RWRMI
MICHIGAN HOURLY REGIONAL WEATHER ROUNDUP
NATIONAL WEATHER SERVICE DETROIT/PONTIAC MI
700 AM EDT SAT APR 30 2016

NOTE: "FAIR" INDICATES FEW OR NO CLOUDS BELOW 12,000 FEET WITH NO
SIGNIFICANT WEATHER AND/OR OBSTRUCTION TO VISIBILITY.

MIZ047>049-052>055-059>063-066>070-074>076-081>083-301200-
SOUTHEAST LOWER MICHIGAN

CITY           SKY/WX    TMP DP  RH WIND       PRES   REMARKS
ADRIAN         PTCLDY    41  39  93 NE8       30.13F FOG
ALMA           CLEAR     33  32  96 NE5       30.16S WCI  29
ANN ARBOR      CLOUDY    38  32  79 CALM      30.14R
BAD AXE        CLOUDY    37  31  81 NE6       30.17S WCI  32
CARO           CLOUDY    33  29  86 CALM      30.16S
DETROIT CITY   CLEAR     40  30  67 N5        30.16R
DETROIT        MOCLDY    41  31  67 N3        30.16R
FLINT          PTCLDY    37  32  82 E3        30.16R
GROSSE ILE     CLEAR     43  36  75 NE5       30.14R
HILLSDALE      CLOUDY    43  41  93 E9        30.10F
HOWELL         CLOUDY    36  34  91 CALM      30.14S

CITY           SKY/WX    TMP DP  RH WIND       PRES   REMARKS
JACKSON        MOCLDY    43  38  82 E3        30.12F
LAMBERTVILLE   CLOUDY    39  37  92 NE3       30.13F FOG
LANSING        CLOUDY    37  33  85 E5        30.14F WCI  33
LAPEER         CLOUDY    38  33  82 CALM      30.16R
MASON          MOCLDY    39  33  80 E3        30.14S
MONROE         CLOUDY    38  37  97 CALM      30.14R FOG
MT. CLEMENS    CLEAR     36  32  86 NE3       30.15R
PONTIAC        PTCLDY    39  29  67 NE3       30.14R
PORT HOPE        N/A     35  32  88 CALM      30.17F
PORT HURON     CLEAR     37  34  87 CALM      30.17R
TRI CITIES     CLEAR     36  30  79 NE6       30.17R WCI  31
MIDLAND        FAIR      31  31  99 CALM      30.17S FOG
TROY           CLEAR     42  30  63 CALM      30.17R
SAGINAW HB     CLEAR     34  30  86 CALM      30.16F
$$
MIZ043>046-050>051-056>058-064>065-071>073-077>080-301200-
SOUTHWEST LOWER MICHIGAN

CITY           SKY/WX    TMP DP  RH WIND       PRES   REMARKS
BATTLE CREEK   CLOUDY    45  39  79 E6        30.11F
BENTON HARBOR  CLOUDY    46  39  76 E8        30.08F
BIG RAPIDS     CLOUDY    32  30  92 CALM      30.16R
COLDWATER      PTCLDY    46  39  78 E9        30.09F
FREMONT        FAIR      38  37  95 E6        30.14S WCI  34
HOLLAND        PTCLDY    42  37  82 E6        30.13R
GRAND RAPIDS   CLOUDY    40  36  86 E6        30.14S
IONIA          FAIR      36  34  94 E5        30.13F WCI  32
KALAMAZOO      CLOUDY    47  38  71 E3        30.10F
LUDINGTON      CLOUDY    33  33 100 CALM      30.15F
MARSHALL       CLOUDY    43  38  82 E3        30.11F
MOUNT PLEASANT CLEAR     34  32  92 N3        30.16S
MUSKEGON       CLOUDY    40  35  83 E8        30.14S WCI  34
SOUTH HAVEN    CLOUDY    42  40  94 NE3       30.09F
$$
MIZ016>042-301200-
NORTHERN LOWER MICHIGAN

CITY           SKY/WX    TMP DP  RH WIND       PRES   REMARKS
ALPENA         CLEAR     29  26  89 CALM      30.21R
BEAVER ISLAND  CLEAR     31  29  95 CALM      30.19R
BELLAIRE       CLEAR     31  30  94 CALM      30.18S
CADILLAC       CLEAR     31  28  88 CALM      30.15R
CHARLEVOIX     CLEAR     36  31  82 CALM      30.21R
FRANKFORT      CLOUDY    33  31  94 CALM      30.16S
GAYLORD        CLEAR     31  26  82 CALM      30.17R
GRAYLING       CLEAR     27  23  86 CALM      30.18R
HARBOR SPRINGS CLEAR     33  31  94 NE6       30.19R WCI  28
HOUGHTON LAKE  CLEAR     31  29  92 NE3       30.17R
MANISTEE       CLOUDY    34  30  86 E6        30.16R WCI  29
OSCODA         CLEAR     29  27  92 CALM      30.19R
PELLSTON       CLEAR     27  25  92 CALM      30.20R
ROGERS CITY    CLEAR     28  26  91 CALM      30.22R
TRAVERSE CITY  PTCLDY    33  30  88 CALM      30.16R
$$
MIZ007>008-015-301200-
EASTERN UPPER MICHIGAN

CITY           SKY/WX    TMP DP  RH WIND       PRES   REMARKS
KINROSS          N/A     34  30  86 CALM      30.19S
MACKINAC ISLAN MOCLDY    37  29  72 E5        30.19R WCI  33
NEWBERRY       CLEAR     33  31  92 N5        30.18S WCI  28
S. S. MARIE    PTCLDY    35  31  85 E3        30.20S
MUNISING         N/A     32  29  88 CALM      30.20R
$$
MIZ004>006-011>014-085-301200-
CENTRAL UPPER MICHIGAN

CITY           SKY/WX    TMP DP  RH WIND       PRES   REMARKS
MANISTIQUE     CLEAR     32  31  94 N5        30.19R WCI  28
ESCANABA       CLEAR     39  30  70 N6        30.19R WCI  35
MENOMINEE      PTCLDY    37  28  70 NE7       30.17S WCI  32
SAWYER-GWINN   CLEAR     32  28  86 N6        30.21R WCI  26
$$
MIZ001>003-009>011-084-301200-
WESTERN UPPER MICHIGAN

CITY           SKY/WX    TMP DP  RH WIND       PRES   REMARKS
IRON MOUNTAIN  CLOUDY    31  26  82 CALM      30.18R
HOUGHTON       PTCLDY    39  29  67 N9        30.22S WCI  33
COPPER HARBOR    N/A     39  36  89 NE3       30.25S
IRONWOOD         N/A     34  32  93 E3        30.20S
$$

ABBREVIATIONS USED IN REMARKS
   TC - TEMPERATURE IN CELSIUS
  WCI - WIND CHILL INDEX
   HX - HEAT INDEX
  VSB - VISIBILITY





USA.gov is the U.S. government's official web portal to all federal, state and local government web resources and services.